Weather History for Fairfield, CA

Change the Weather History Date:

Friday, March 1, 2013

  Actual Average Record
Temperature  
Mean Temperature 55 °F -  
Max Temperature 71 °F 59 °F 71 °F (2013)
Min Temperature 39 °F 40 °F 32 °F (2007)
Degree Days  
Heating Degree Days 10    
Growing Degree Days 5 (Base 50)    
Moisture  
Dew Point 47 °F    
Average Humidity 85    
Maximum Humidity 100    
Minimum Humidity 42    
Precipitation  
Precipitation 0.00 in - - ()
Sea Level Pressure  
Sea Level Pressure 30.35 in    
Wind  
Wind Speed 4 mph (SE)    
Max Wind Speed 10 mph    
Max Gust Speed -    
Visibility 8 miles    
Events Fog    
Averages and records for this station are not official NWS values.
T = Trace of Precipitation, MM = Missing Value Source: NWS Daily Summary

Daily Weather History Graph

Daily Weather History Graph

Search for Another Location

Airport:

Trip Planner

Search our weather history database for the weather conditions in past years. The results will help you decide how hot, cold, wet, or windy it might be!

Date:

Astronomy

Mar. 01, 2013 Rise Set
Actual Time 6:39 AM PST 6:01 PM PST
Civil Twilight 6:12 AM PST 6:27 PM PST
Nautical Twilight 5:42 AM PST 6:58 PM PST
Astronomical Twilight 5:11 AM PST 7:29 PM PST
Moon 10:36 PM PST (3/1) 8:33 AM PST (3/1)
Length of Visible Light 12h 15m
Length of Day
11h 22m
Waning Gibbous, 82% of the Moon is Illuminated
Mar 1
Waning Gibbous
Mar 4
Last Quarter
Mar 11
New
Mar 19
First Quarter
Mar 27
Full

Hourly Weather History & Observations

Time (PST) Temp. Windchill Dew Point Humidity Pressure Visibility Wind Dir Wind Speed Gust Speed Precip Events Conditions
12:58 AM 46.9 °F - 46.9 °F 100% 30.43 in 10.0 mi WSW 4.6 mph - N/A   Clear
1:58 AM 49.1 °F - 49.1 °F 100% 30.43 in 10.0 mi West 5.8 mph - N/A   Clear
2:58 AM 48.2 °F - 48.2 °F 100% 30.42 in 10.0 mi WSW 8.1 mph - N/A   Clear
3:58 AM 45.3 °F 41.1 °F 45.3 °F 100% 30.42 in 10.0 mi WSW 8.1 mph - N/A   Clear
4:58 AM 46.2 °F 45.0 °F 46.2 °F 100% 30.42 in 10.0 mi SSW 3.5 mph - N/A   Clear
5:58 AM 40.6 °F - 40.6 °F 100% 30.41 in 10.0 mi SW 2.3 mph - N/A   Clear
6:43 AM 39.2 °F - 39.2 °F 100% 30.39 in 1.2 mi Calm Calm - N/A   Clear
6:48 AM 39.2 °F - 39.2 °F 100% 30.39 in 1.0 mi ENE 2.3 mph - N/A   Clear
6:53 AM 39.2 °F - 39.2 °F 100% 30.39 in 0.8 mi ESE 2.3 mph - N/A   Clear
6:58 AM 39.9 °F 37.8 °F 39.9 °F 100% 30.41 in 0.5 mi SE 3.5 mph - N/A Fog Fog
7:03 AM 41.0 °F - 41.0 °F 100% 30.39 in 1.2 mi SSE 2.3 mph - N/A   Clear
7:08 AM 41.0 °F - 41.0 °F 100% 30.40 in 10.0 mi SE 1.2 mph - N/A   Clear
7:58 AM 46.8 °F - 46.8 °F 100% 30.42 in 10.0 mi Calm Calm - N/A   Clear
8:58 AM 54.1 °F - 53.8 °F 99% 30.41 in 10.0 mi NE 9.2 mph - N/A   Clear
9:58 AM 59.7 °F - 53.6 °F 80% 30.40 in 10.0 mi Variable 6.9 mph - N/A   Clear
10:58 AM 64.6 °F - 51.8 °F 63% 30.39 in 10.0 mi NNE 4.6 mph - N/A   Clear
11:58 AM 67.6 °F - 51.6 °F 56% 30.37 in 10.0 mi NNE 10.4 mph - N/A   Clear
12:58 PM 69.8 °F - 51.3 °F 52% 30.34 in 10.0 mi East 5.8 mph - N/A   Clear
1:58 PM 71.1 °F - 48.6 °F 45% 30.30 in 10.0 mi ENE 8.1 mph - N/A   Clear
2:58 PM 71.6 °F - 48.0 °F 43% 30.28 in 10.0 mi Variable 4.6 mph - N/A   Clear
3:58 PM 71.8 °F - 47.3 °F 42% 30.27 in 10.0 mi Variable 2.3 mph - N/A   Clear
4:58 PM 70.7 °F - 48.7 °F 46% 30.26 in 10.0 mi ESE 3.5 mph - N/A   Clear
5:58 PM 67.5 °F - 52.5 °F 59% 30.25 in 10.0 mi SE 2.3 mph - N/A   Clear
6:58 PM 56.5 °F - 52.9 °F 88% 30.26 in 10.0 mi WSW 2.3 mph - N/A   Clear
7:58 PM 50.9 °F - 50.7 °F 99% 30.27 in 10.0 mi West 4.6 mph - N/A   Clear
8:58 PM 50.2 °F - 50.0 °F 99% 30.28 in 10.0 mi WNW 2.3 mph - N/A   Clear
9:58 PM 48.9 °F - 48.7 °F 99% 30.26 in 10.0 mi Calm Calm - N/A   Clear
10:58 PM 48.0 °F - 47.8 °F 99% 30.26 in 10.0 mi Calm Calm - N/A   Clear
11:58 PM 45.3 °F 44.0 °F 45.3 °F 100% 30.26 in 10.0 mi ENE 3.5 mph - N/A   Clear